Location: T�chigga el Be�da
(16.4766°N, 9.3887°W)
Time: 09:57:20
(UTC+00:00)

USA 267 - Pass Details

Date: 27 February 2020
Orbit: 1101 x 1107 km, 123.0° (Epoch: 26 March)

Event Time Altitude Azimuth Distance (km) Brightness Sun altitude
Exits shadow 20:12:14 30° 50° (NE) 1,861 4.0 -21.9°
Maximum altitude 20:15:42 71° 127° (SE) 1,157 3.1 -22.7°
Drops below altitude 10° 20:22:12 10° 210° (SSW) 2,955 5.9 -24.3°
Sets 20:24:42 0° 212° (SSW) 3,913 6.6 -24.9°
